sat.trackr.live / text

‹ back to catalog

UNKNOWN

NORAD 81838

UNKNOWN UNKNOWN UNKNOWN

§ Identity

Operator
Country
Launch date
Launch site
Launch vehicle
Mass (kg)
RCS (m²)

External: N2YO · Heavens-Above

§ Orbital elements

Epoch: 2026-05-22T14:42:15.645312Z

Period
98.69 min
Inclination
67.7583°
Eccentricity
0.0042653
Mean motion
14.59055347 rev/d
Perigee alt
666.1 km
Apogee alt
726.4 km
Semi-major
7,074.4 km
B*
6.5097e-4
RAAN
204.9627°
Arg perigee
221.3866°
Mean anomaly
289.4859°
Rev number
65,678

§ Raw data

UNKNOWN1 81838U          26142.61268108  .00003014  00000+0  65097-3 0  99922 81838  67.7583 204.9627 0042653 221.3866 289.4859 14.59055347656784

JSON: /api/v1/satellites/81838 · /tle

For live sub-satellite position, see the globe view (requires WebGL).

§ Visibility from observer

Set your observer location to see the next 7 days of passes ≥ 10°. The values pass through the URL so the page stays shareable.

No JS? Fill the form by hand. The geolocation button needs JavaScript.